Location: Bégole
(43.1574°N, 0.3291°E)
Time: 03:24:15
(UTC+00:00)

SKYMED 2 - Pass Details

Date: 28 January 2023
Orbit: 621 x 623 km, 97.9° (Epoch: 27 March)

Event Time Altitude Azimuth Distance (km) Brightness Sun altitude
Rises 17:42:53 0° 18° (NNE) 2,917 6.7 -7.2°
Reaches altitude 10° 17:45:09 10° 24° (NNE) 2,005 5.8 -7.6°
Maximum altitude 17:49:23 48° 99° (E) 823 3.8 -8.4°
Drops below altitude 10° 17:53:34 10° 174° (S) 1,989 6.3 -9.1°
Sets 17:55:48 0° 180° (S) 2,890 7.2 -9.5°
